Hourly Data Report for June 01, 2021

WRIGLEY A
NORTHWEST TERRITORIES
Current Station Operator: NAVCAN

63°12'35.000" N
123°26'12.000" W
149.70 m
2204005
YWY

Download Data

Hourly Data (June 2021)
Hourly Data Report for June 1, 2021
TIME
LST
Temp Definition
°C
Dew Point Definition
°C
Rel Hum Definition
%
Precip. Amount Definition
mm

Wind Dir Definition
10's deg

Wind Spd Definition
km/h
Visibility Definition
km
Stn Press Definition
kPa
Hmdx Definition


Wind Chill Definition


Weather Definition


00:00 19.0 5.8 41 LegendMM 13 12 LegendMM 98.49     LegendNANA
01:00 18.8 5.5 41 LegendMM 14 19 LegendMM 98.42     LegendNANA
02:00 17.9 5.5 44 LegendMM 11 7 LegendMM 98.37     LegendNANA
03:00 16.0 6.2 52 LegendMM 16 5 LegendMM 98.28     LegendNANA
04:00 14.1 6.8 61 LegendMM 4 5 LegendMM 98.24     LegendNANA
05:00 14.4 6.7 60 LegendMM 15 7 LegendMM 98.22     LegendNANA
06:00 15.0 6.3 56 LegendMM 16 9 LegendMM 98.22     LegendNANA
07:00 15.3 7.2 58 LegendMM 20 2 LegendMM 98.24     LegendNANA
08:00 15.7 8.1 60 LegendMM 19 4 LegendMM 98.23     LegendNANA
09:00 17.6 8.0 53 LegendMM 29 5 LegendMM 98.20     LegendNANA
10:00 18.7 7.1 46 LegendMM 28 9 LegendMM 98.19     LegendNANA
11:00 20.7 6.9 40 LegendMM 31 7 LegendMM 98.20     LegendNANA
12:00 22.5 7.0 36 LegendMM 28 8 LegendMM 98.20     LegendNANA
13:00 22.0 7.0 37 LegendMM 25 6 LegendMM 98.25     LegendNANA
14:00 23.2 6.9 35 LegendMM 35 11 LegendMM 98.27     LegendNANA
15:00 24.2 7.6 34 LegendMM 33 10 LegendMM 98.28     LegendNANA
16:00 24.5 7.6 33 LegendMM 31 14 LegendMM 98.34 25   LegendNANA
17:00 23.0 6.6 34 LegendMM 32 14 LegendMM 98.37     LegendNANA
18:00 22.5 7.0 36 LegendMM 33 6 LegendMM 98.40     LegendNANA
19:00 21.2 7.5 41 LegendMM 31 7 LegendMM 98.40     LegendNANA
20:00 21.1 7.2 40 LegendMM 32 8 LegendMM 98.41     LegendNANA
21:00 19.8 7.9 46 LegendMM 31 8 LegendMM 98.43     LegendNANA
22:00 17.7 8.6 55 LegendMM 31 5 LegendMM 98.48     LegendNANA
23:00 16.2 8.3 59 LegendMM 31 10 LegendMM 98.52     LegendNANA

Notes on Data Quality.

Legend

  • E = Estimated
  • M = Missing
  • NA = Not Available*
  • [empty] = Indicates an unobserved value
Date modified: